Time,TemperatureF,DewpointF,PressureIn,WindDirection,WindDirectionDegrees,WindSpeedMPH,WindSpeedGustMPH,Humidity,HourlyPrecipIn,Conditions,Clouds,dailyrainin,SoftwareType,DateUTC
2013-05-24 00:02:00,47.0,42.0,30.04,North,-999,-999.0,-999.0,84,-99.99,,,-99.99,,2013-05-24 06:02:00,
2013-05-24 00:12:00,47.0,42.0,30.04,North,-999,-999.0,-999.0,84,-99.99,,,-99.99,,2013-05-24 06:12:00,
2013-05-24 00:21:00,47.0,43.0,30.05,North,-999,-999.0,-999.0,86,-99.99,,,-99.99,,2013-05-24 06:21:00,
2013-05-24 00:32:00,47.0,43.0,30.05,North,-999,-999.0,-999.0,86,-99.99,,,-99.99,,2013-05-24 06:32:00,
2013-05-24 00:42:00,46.0,43.0,30.03,North,-999,-999.0,-999.0,89,-99.99,,,-99.99,,2013-05-24 06:42:00,
2013-05-24 00:52:00,46.0,43.0,30.03,North,-999,-999.0,-999.0,89,-99.99,,,-99.99,,2013-05-24 06:52:00,
2013-05-24 01:01:00,46.0,43.0,30.03,North,-999,-999.0,-999.0,89,-99.99,,,-99.99,,2013-05-24 07:01:00,
2013-05-24 01:11:00,46.0,43.0,30.02,North,-999,-999.0,-999.0,90,-99.99,,,-99.99,,2013-05-24 07:11:00,
2013-05-24 01:22:00,46.0,43.0,30.02,North,-999,-999.0,-999.0,90,-99.99,,,-99.99,,2013-05-24 07:22:00,
2013-05-24 01:31:00,46.0,43.0,30.02,North,-999,-999.0,-999.0,90,-99.99,,,-99.99,,2013-05-24 07:31:00,
2013-05-24 01:42:00,45.0,43.0,30.02,North,-999,-999.0,-999.0,91,-99.99,,,-99.99,,2013-05-24 07:42:00,
2013-05-24 01:52:00,45.0,43.0,30.02,North,-999,-999.0,-999.0,91,-99.99,,,-99.99,,2013-05-24 07:52:00,
2013-05-24 02:02:00,45.0,43.0,30.02,North,-999,-999.0,-999.0,91,-99.99,,,-99.99,,2013-05-24 08:02:00,
2013-05-24 02:11:00,45.0,42.0,30.01,North,-999,-999.0,-999.0,90,-99.99,,,-99.99,,2013-05-24 08:11:00,
2013-05-24 02:22:00,45.0,42.0,30.01,North,-999,-999.0,-999.0,90,-99.99,,,-99.99,,2013-05-24 08:22:00,
2013-05-24 02:33:00,45.0,42.0,30.01,North,-999,-999.0,-999.0,90,-99.99,,,-99.99,,2013-05-24 08:33:00,
2013-05-24 02:42:00,44.0,42.0,30.00,North,-999,-999.0,-999.0,91,-99.99,,,-99.99,,2013-05-24 08:42:00,
2013-05-24 02:52:00,44.0,42.0,30.00,North,-999,-999.0,-999.0,91,-99.99,,,-99.99,,2013-05-24 08:52:00,
2013-05-24 03:02:00,44.0,42.0,30.00,North,-999,-999.0,-999.0,91,-99.99,,,-99.99,,2013-05-24 09:02:00,
2013-05-24 03:11:00,44.0,41.0,30.00,North,-999,-999.0,-999.0,90,-99.99,,,-99.99,,2013-05-24 09:11:00,
2013-05-24 03:21:00,44.0,41.0,30.00,North,-999,-999.0,-999.0,90,-99.99,,,-99.99,,2013-05-24 09:21:00,
2013-05-24 03:32:00,44.0,41.0,30.00,North,-999,-999.0,-999.0,90,-99.99,,,-99.99,,2013-05-24 09:32:00,
2013-05-24 03:42:00,44.0,41.0,30.01,North,-999,-999.0,-999.0,88,-99.99,,,-99.99,,2013-05-24 09:42:00,
2013-05-24 03:52:00,44.0,41.0,30.01,North,-999,-999.0,-999.0,88,-99.99,,,-99.99,,2013-05-24 09:52:00,
2013-05-24 04:03:00,44.0,41.0,30.01,North,-999,-999.0,-999.0,88,-99.99,,,-99.99,,2013-05-24 10:03:00,
2013-05-24 04:12:00,44.0,40.0,30.02,North,-999,-999.0,-999.0,88,-99.99,,,-99.99,,2013-05-24 10:12:00,
2013-05-24 04:22:00,44.0,40.0,30.02,North,-999,-999.0,-999.0,88,-99.99,,,-99.99,,2013-05-24 10:22:00,
2013-05-24 04:33:00,44.0,40.0,30.02,North,-999,-999.0,-999.0,88,-99.99,,,-99.99,,2013-05-24 10:33:00,
2013-05-24 04:42:00,43.0,40.0,30.01,North,-999,-999.0,-999.0,90,-99.99,,,-99.99,,2013-05-24 10:42:00,
2013-05-24 04:52:00,43.0,40.0,30.01,North,-999,-999.0,-999.0,90,-99.99,,,-99.99,,2013-05-24 10:52:00,
2013-05-24 05:02:00,43.0,40.0,30.01,North,-999,-999.0,-999.0,90,-99.99,,,-99.99,,2013-05-24 11:02:00,
2013-05-24 05:12:00,43.0,39.0,30.02,North,-999,-999.0,-999.0,87,-99.99,,,-99.99,,2013-05-24 11:12:00,
2013-05-24 05:22:00,43.0,39.0,30.02,North,-999,-999.0,-999.0,87,-99.99,,,-99.99,,2013-05-24 11:22:00,
2013-05-24 05:32:00,43.0,39.0,30.02,North,-999,-999.0,-999.0,87,-99.99,,,-99.99,,2013-05-24 11:32:00,
2013-05-24 05:42:00,43.0,39.0,30.02,North,-999,-999.0,-999.0,87,-99.99,,,-99.99,,2013-05-24 11:42:00,
2013-05-24 05:51:00,44.0,37.0,30.04,North,-999,-999.0,-999.0,77,-99.99,,,-99.99,,2013-05-24 11:51:00,
2013-05-24 06:02:00,44.0,37.0,30.04,North,-999,-999.0,-999.0,77,-99.99,,,-99.99,,2013-05-24 12:02:00,
2013-05-24 06:11:00,46.0,35.0,30.07,North,-999,-999.0,-999.0,67,-99.99,,,-99.99,,2013-05-24 12:11:00,
2013-05-24 06:21:00,46.0,35.0,30.07,North,-999,-999.0,-999.0,67,-99.99,,,-99.99,,2013-05-24 12:21:00,
2013-05-24 06:32:00,46.0,35.0,30.07,North,-999,-999.0,-999.0,67,-99.99,,,-99.99,,2013-05-24 12:32:00,
2013-05-24 06:42:00,43.0,38.0,30.10,North,-999,-999.0,-999.0,82,-99.99,,,-99.99,,2013-05-24 12:42:00,
2013-05-24 06:52:00,43.0,38.0,30.10,North,-999,-999.0,-999.0,82,-99.99,,,-99.99,,2013-05-24 12:52:00,
2013-05-24 07:02:00,43.0,38.0,30.10,North,-999,-999.0,-999.0,82,-99.99,,,-99.99,,2013-05-24 13:02:00,
2013-05-24 07:11:00,47.0,40.0,30.11,North,-999,-999.0,-999.0,75,-99.99,,,-99.99,,2013-05-24 13:11:00,
2013-05-24 07:21:00,47.0,40.0,30.11,North,-999,-999.0,-999.0,75,-99.99,,,-99.99,,2013-05-24 13:21:00,
2013-05-24 07:32:00,47.0,40.0,30.11,North,-999,-999.0,-999.0,75,-99.99,,,-99.99,,2013-05-24 13:32:00,
2013-05-24 07:42:00,48.0,35.0,30.13,North,-999,-999.0,-999.0,59,-99.99,,,-99.99,,2013-05-24 13:42:00,
2013-05-24 07:52:00,48.0,35.0,30.13,North,-999,-999.0,-999.0,59,-99.99,,,-99.99,,2013-05-24 13:52:00,
2013-05-24 08:01:00,48.0,35.0,30.13,North,-999,-999.0,-999.0,59,-99.99,,,-99.99,,2013-05-24 14:01:00,
2013-05-24 08:11:00,49.0,32.0,30.14,North,-999,-999.0,-999.0,52,-99.99,,,-99.99,,2013-05-24 14:11:00,
2013-05-24 08:21:00,49.0,32.0,30.14,North,-999,-999.0,-999.0,52,-99.99,,,-99.99,,2013-05-24 14:21:00,
2013-05-24 08:32:00,49.0,32.0,30.14,North,-999,-999.0,-999.0,52,-99.99,,,-99.99,,2013-05-24 14:32:00,
2013-05-24 08:42:00,50.0,29.0,30.16,North,-999,-999.0,-999.0,43,-99.99,,,-99.99,,2013-05-24 14:42:00,
2013-05-24 08:52:00,50.0,29.0,30.16,North,-999,-999.0,-999.0,43,-99.99,,,-99.99,,2013-05-24 14:52:00,
2013-05-24 09:02:00,50.0,29.0,30.16,North,-999,-999.0,-999.0,43,-99.99,,,-99.99,,2013-05-24 15:02:00,
2013-05-24 09:11:00,54.0,28.0,30.16,North,-999,-999.0,-999.0,37,-99.99,,,-99.99,,2013-05-24 15:11:00,
2013-05-24 09:21:00,54.0,28.0,30.16,North,-999,-999.0,-999.0,37,-99.99,,,-99.99,,2013-05-24 15:21:00,
2013-05-24 09:33:00,54.0,28.0,30.16,North,-999,-999.0,-999.0,37,-99.99,,,-99.99,,2013-05-24 15:33:00,
2013-05-24 09:43:00,54.0,28.0,30.16,North,-999,-999.0,-999.0,37,-99.99,,,-99.99,,2013-05-24 15:43:00,
2013-05-24 09:52:00,53.0,29.0,30.17,North,-999,-999.0,-999.0,40,-99.99,,,-99.99,,2013-05-24 15:52:00,
2013-05-24 10:03:00,53.0,29.0,30.17,North,-999,-999.0,-999.0,40,-99.99,,,-99.99,,2013-05-24 16:03:00,
2013-05-24 10:12:00,54.0,26.0,30.17,North,-999,-999.0,-999.0,34,-99.99,,,-99.99,,2013-05-24 16:12:00,
2013-05-24 10:22:00,54.0,26.0,30.17,North,-999,-999.0,-999.0,34,-99.99,,,-99.99,,2013-05-24 16:22:00,
2013-05-24 10:32:00,54.0,26.0,30.17,North,-999,-999.0,-999.0,34,-99.99,,,-99.99,,2013-05-24 16:32:00,
2013-05-24 10:42:00,54.0,26.0,30.17,North,-999,-999.0,-999.0,34,-99.99,,,-99.99,,2013-05-24 16:42:00,
2013-05-24 10:52:00,55.0,25.0,30.16,North,-999,-999.0,-999.0,31,-99.99,,,-99.99,,2013-05-24 16:52:00,
2013-05-24 11:02:00,55.0,25.0,30.16,North,-999,-999.0,-999.0,31,-99.99,,,-99.99,,2013-05-24 17:02:00,
2013-05-24 11:12:00,59.0,25.0,30.15,North,-999,-999.0,-999.0,27,-99.99,,,-99.99,,2013-05-24 17:12:00,
2013-05-24 11:22:00,59.0,25.0,30.15,North,-999,-999.0,-999.0,27,-99.99,,,-99.99,,2013-05-24 17:22:00,
2013-05-24 11:32:00,59.0,25.0,30.15,North,-999,-999.0,-999.0,27,-99.99,,,-99.99,,2013-05-24 17:32:00,
2013-05-24 11:42:00,61.0,25.0,30.15,North,-999,-999.0,-999.0,25,-99.99,,,-99.99,,2013-05-24 17:42:00,
2013-05-24 11:52:00,61.0,25.0,30.15,North,-999,-999.0,-999.0,25,-99.99,,,-99.99,,2013-05-24 17:52:00,
2013-05-24 12:01:00,61.0,25.0,30.15,North,-999,-999.0,-999.0,25,-99.99,,,-99.99,,2013-05-24 18:01:00,
2013-05-24 12:12:00,67.0,23.0,30.14,North,-999,-999.0,-999.0,19,-99.99,,,-99.99,,2013-05-24 18:12:00,
2013-05-24 12:21:00,67.0,23.0,30.14,North,-999,-999.0,-999.0,19,-99.99,,,-99.99,,2013-05-24 18:21:00,
2013-05-24 12:32:00,67.0,23.0,30.14,North,-999,-999.0,-999.0,19,-99.99,,,-99.99,,2013-05-24 18:32:00,
2013-05-24 12:42:00,65.0,21.0,30.14,North,-999,-999.0,-999.0,19,-99.99,,,-99.99,,2013-05-24 18:42:00,
2013-05-24 12:51:00,65.0,21.0,30.14,North,-999,-999.0,-999.0,19,-99.99,,,-99.99,,2013-05-24 18:51:00,
2013-05-24 13:01:00,65.0,21.0,30.14,North,-999,-999.0,-999.0,19,-99.99,,,-99.99,,2013-05-24 19:01:00,
2013-05-24 13:11:00,66.0,19.0,30.13,North,-999,-999.0,-999.0,16,-99.99,,,-99.99,,2013-05-24 19:11:00,
2013-05-24 13:21:00,66.0,19.0,30.13,North,-999,-999.0,-999.0,16,-99.99,,,-99.99,,2013-05-24 19:21:00,
2013-05-24 13:32:00,66.0,19.0,30.13,North,-999,-999.0,-999.0,16,-99.99,,,-99.99,,2013-05-24 19:32:00,
2013-05-24 13:42:00,68.0,11.0,30.12,North,-999,-999.0,-999.0,10,-99.99,,,-99.99,,2013-05-24 19:42:00,
2013-05-24 13:52:00,68.0,11.0,30.12,North,-999,-999.0,-999.0,10,-99.99,,,-99.99,,2013-05-24 19:52:00,
2013-05-24 14:02:00,68.0,11.0,30.12,North,-999,-999.0,-999.0,10,-99.99,,,-99.99,,2013-05-24 20:02:00,
2013-05-24 14:11:00,69.0,14.0,30.12,North,-999,-999.0,-999.0,11,-99.99,,,-99.99,,2013-05-24 20:11:00,
2013-05-24 14:21:00,69.0,14.0,30.12,North,-999,-999.0,-999.0,11,-99.99,,,-99.99,,2013-05-24 20:21:00,
2013-05-24 14:32:00,69.0,14.0,30.12,North,-999,-999.0,-999.0,11,-99.99,,,-99.99,,2013-05-24 20:32:00,
2013-05-24 14:42:00,69.0,13.0,30.11,North,-999,-999.0,-999.0,11,-99.99,,,-99.99,,2013-05-24 20:42:00,
2013-05-24 14:52:00,69.0,13.0,30.11,North,-999,-999.0,-999.0,11,-99.99,,,-99.99,,2013-05-24 20:52:00,
2013-05-24 15:01:00,69.0,13.0,30.11,North,-999,-999.0,-999.0,11,-99.99,,,-99.99,,2013-05-24 21:01:00,
2013-05-24 15:11:00,71.0,15.0,30.11,North,-999,-999.0,-999.0,11,-99.99,,,-99.99,,2013-05-24 21:11:00,
2013-05-24 15:21:00,71.0,15.0,30.11,North,-999,-999.0,-999.0,11,-99.99,,,-99.99,,2013-05-24 21:21:00,
2013-05-24 15:33:00,71.0,15.0,30.11,North,-999,-999.0,-999.0,11,-99.99,,,-99.99,,2013-05-24 21:33:00,
2013-05-24 15:43:00,71.0,17.0,30.10,North,-999,-999.0,-999.0,12,-99.99,,,-99.99,,2013-05-24 21:43:00,
2013-05-24 15:53:00,71.0,17.0,30.10,North,-999,-999.0,-999.0,12,-99.99,,,-99.99,,2013-05-24 21:53:00,
2013-05-24 16:02:00,71.0,17.0,30.10,North,-999,-999.0,-999.0,12,-99.99,,,-99.99,,2013-05-24 22:02:00,
2013-05-24 16:12:00,71.0,17.0,30.10,North,-999,-999.0,-999.0,12,-99.99,,,-99.99,,2013-05-24 22:12:00,
2013-05-24 16:22:00,71.0,17.0,30.10,North,-999,-999.0,-999.0,12,-99.99,,,-99.99,,2013-05-24 22:22:00,
2013-05-24 16:33:00,71.0,17.0,30.10,North,-999,-999.0,-999.0,12,-99.99,,,-99.99,,2013-05-24 22:33:00,
2013-05-24 16:42:00,71.0,17.0,30.10,North,-999,-999.0,-999.0,12,-99.99,,,-99.99,,2013-05-24 22:42:00,
2013-05-24 16:52:00,71.0,28.0,30.10,North,-999,-999.0,-999.0,20,-99.99,,,-99.99,,2013-05-24 22:52:00,
2013-05-24 17:02:00,71.0,28.0,30.10,North,-999,-999.0,-999.0,20,-99.99,,,-99.99,,2013-05-24 23:02:00,
2013-05-24 17:11:00,71.0,30.0,30.09,North,-999,-999.0,-999.0,21,-99.99,,,-99.99,,2013-05-24 23:11:00,
2013-05-24 17:22:00,71.0,30.0,30.09,North,-999,-999.0,-999.0,21,-99.99,,,-99.99,,2013-05-24 23:22:00,
2013-05-24 17:32:00,71.0,30.0,30.09,North,-999,-999.0,-999.0,21,-99.99,,,-99.99,,2013-05-24 23:32:00,
2013-05-24 17:42:00,69.0,30.0,30.10,North,-999,-999.0,-999.0,22,-99.99,,,-99.99,,2013-05-24 23:42:00,
2013-05-24 17:52:00,69.0,30.0,30.10,North,-999,-999.0,-999.0,22,-99.99,,,-99.99,,2013-05-24 23:52:00,
2013-05-24 18:01:00,69.0,30.0,30.10,North,-999,-999.0,-999.0,22,-99.99,,,-99.99,,2013-05-25 00:01:00,
2013-05-24 18:11:00,69.0,30.0,30.10,North,-999,-999.0,-999.0,22,-99.99,,,-99.99,,2013-05-25 00:11:00,
2013-05-24 18:21:00,69.0,30.0,30.10,North,-999,-999.0,-999.0,22,-99.99,,,-99.99,,2013-05-25 00:21:00,
2013-05-24 18:42:00,67.0,31.0,30.11,North,-999,-999.0,-999.0,26,-99.99,,,-99.99,,2013-05-25 00:42:00,
2013-05-24 18:52:00,67.0,31.0,30.11,North,-999,-999.0,-999.0,26,-99.99,,,-99.99,,2013-05-25 00:52:00,
2013-05-24 19:01:00,67.0,31.0,30.11,North,-999,-999.0,-999.0,26,-99.99,,,-99.99,,2013-05-25 01:01:00,
2013-05-24 19:11:00,67.0,32.0,30.11,North,-999,-999.0,-999.0,26,-99.99,,,-99.99,,2013-05-25 01:11:00,
2013-05-24 19:22:00,67.0,32.0,30.11,North,-999,-999.0,-999.0,26,-99.99,,,-99.99,,2013-05-25 01:22:00,
2013-05-24 19:32:00,67.0,32.0,30.11,North,-999,-999.0,-999.0,26,-99.99,,,-99.99,,2013-05-25 01:32:00,
2013-05-24 19:42:00,67.0,29.0,30.11,North,-999,-999.0,-999.0,24,-99.99,,,-99.99,,2013-05-25 01:42:00,
2013-05-24 19:52:00,67.0,29.0,30.11,North,-999,-999.0,-999.0,24,-99.99,,,-99.99,,2013-05-25 01:52:00,
2013-05-24 20:02:00,67.0,29.0,30.11,North,-999,-999.0,-999.0,24,-99.99,,,-99.99,,2013-05-25 02:02:00,
2013-05-24 20:11:00,64.0,31.0,30.12,North,-999,-999.0,-999.0,29,-99.99,,,-99.99,,2013-05-25 02:11:00,
2013-05-24 20:21:00,64.0,31.0,30.12,North,-999,-999.0,-999.0,29,-99.99,,,-99.99,,2013-05-25 02:21:00,
2013-05-24 20:31:00,64.0,31.0,30.12,North,-999,-999.0,-999.0,29,-99.99,,,-99.99,,2013-05-25 02:31:00,
2013-05-24 20:42:00,61.0,30.0,30.13,North,-999,-999.0,-999.0,31,-99.99,,,-99.99,,2013-05-25 02:42:00,
2013-05-24 20:51:00,61.0,30.0,30.13,North,-999,-999.0,-999.0,31,-99.99,,,-99.99,,2013-05-25 02:51:00,
2013-05-24 21:02:00,61.0,30.0,30.13,North,-999,-999.0,-999.0,31,-99.99,,,-99.99,,2013-05-25 03:02:00,
2013-05-24 21:11:00,60.0,29.0,30.14,North,-999,-999.0,-999.0,31,-99.99,,,-99.99,,2013-05-25 03:11:00,
2013-05-24 21:21:00,60.0,29.0,30.14,North,-999,-999.0,-999.0,31,-99.99,,,-99.99,,2013-05-25 03:21:00,
2013-05-24 21:32:00,60.0,29.0,30.14,North,-999,-999.0,-999.0,31,-99.99,,,-99.99,,2013-05-25 03:32:00,
2013-05-24 21:43:00,59.0,29.0,30.14,North,-999,-999.0,-999.0,32,-99.99,,,-99.99,,2013-05-25 03:43:00,
2013-05-24 21:53:00,59.0,29.0,30.14,North,-999,-999.0,-999.0,32,-99.99,,,-99.99,,2013-05-25 03:53:00,
2013-05-24 22:02:00,59.0,29.0,30.14,North,-999,-999.0,-999.0,32,-99.99,,,-99.99,,2013-05-25 04:02:00,
2013-05-24 22:13:00,58.0,31.0,30.15,North,-999,-999.0,-999.0,35,-99.99,,,-99.99,,2013-05-25 04:13:00,
2013-05-24 22:23:00,58.0,31.0,30.15,North,-999,-999.0,-999.0,35,-99.99,,,-99.99,,2013-05-25 04:23:00,
2013-05-24 22:33:00,58.0,31.0,30.15,North,-999,-999.0,-999.0,35,-99.99,,,-99.99,,2013-05-25 04:33:00,
2013-05-24 22:43:00,57.0,33.0,30.15,North,-999,-999.0,-999.0,40,-99.99,,,-99.99,,2013-05-25 04:43:00,
2013-05-24 22:52:00,57.0,33.0,30.15,North,-999,-999.0,-999.0,40,-99.99,,,-99.99,,2013-05-25 04:52:00,
2013-05-24 23:02:00,57.0,33.0,30.15,North,-999,-999.0,-999.0,40,-99.99,,,-99.99,,2013-05-25 05:02:00,
2013-05-24 23:12:00,57.0,33.0,30.15,North,-999,-999.0,-999.0,40,-99.99,,,-99.99,,2013-05-25 05:12:00,
2013-05-24 23:22:00,56.0,37.0,30.16,North,-999,-999.0,-999.0,49,-99.99,,,-99.99,,2013-05-25 05:22:00,
2013-05-24 23:32:00,56.0,37.0,30.16,North,-999,-999.0,-999.0,49,-99.99,,,-99.99,,2013-05-25 05:32:00,
2013-05-24 23:43:00,53.0,33.0,30.15,North,-999,-999.0,-999.0,46,-99.99,,,-99.99,,2013-05-25 05:43:00,
2013-05-24 23:52:00,53.0,33.0,30.15,North,-999,-999.0,-999.0,46,-99.99,,,-99.99,,2013-05-25 05:52:00,